Tracking 35280 objects as of 7-Sep-2026
HD Live streaming from Space Station
objects crossing your sky now

ANSER-FLW2

Track ANSER-FLW2 now!
10-day predictions
ANSER-FLW2 is classified as:


NORAD ID: 58018
Int'l Code: 2023-155C
Launch date: October 9, 2023
Source: Spain (SPN)
Launch site: FRENCH GUIANA (FRGUI)

Uplink (MHz):
Downlink (MHz): 401.850
Beacon (MHz):
Mode: FM
Call sign:
Status: Unknown

Your satellite tracking list
Your tracking list is empty




NASA's NSSDC Master Catalog

Two Line Element Set (TLE):
1 58018U 23155C   26250.19116484  .00022616  00000-0  31666-3 0  9999
2 58018  97.5491 343.4577 0002310 160.7674 199.3668 15.56810701161676
Source of the keplerian elements: AFSPC